This is the latest recevied weather packets stored in our database for station/object KC7RJK-2. If no packets are shown the sender has not sent any weather packets the latest 10 day(s).
| Time | Temp. | Humidity | Pressure | Rain* | Wind** | Luminosity | Snow |
|---|---|---|---|---|---|---|---|
| 1777859409 | 28.89° C | 50% | 1006.8 hPa | 0 mm | - | - | - |
| 1777858809 | 29.44° C | 50% | 1006.8 hPa | 0 mm | - | - | - |
| 1777858210 | 29.44° C | 49% | 1006.8 hPa | 0 mm | - | - | - |
| 1777857609 | 29.44° C | 50% | 1006.9 hPa | 0 mm | - | - | - |
| 1777857009 | 29.44° C | 52% | 1006.9 hPa | 0 mm | - | - | - |
| 1777856409 | 30° C | 51% | 1006.9 hPa | 0 mm | - | - | - |
| 1777855808 | 29.44° C | 49% | 1006.8 hPa | 0 mm | - | - | - |
| 1777855209 | 30° C | 44% | 1006.9 hPa | 0 mm | - | - | - |
| 1777854611 | 30° C | 44% | 1006.9 hPa | 0 mm | - | - | - |
| 1777854010 | 30° C | 46% | 1007 hPa | 0 mm | - | - | - |
| 1777853409 | 30.56° C | 47% | 1007 hPa | 0 mm | - | - | - |
| 1777852812 | 30° C | 46% | 1007 hPa | 0 mm | - | - | - |
| 1777852209 | 30° C | 51% | 1007 hPa | 0 mm | - | - | - |
| 1777851609 | 30° C | 47% | 1007 hPa | 0 mm | - | - | - |
| 1777851009 | 29.44° C | 48% | 1007.2 hPa | 0 mm | - | - | - |
| 1777850408 | 30° C | 48% | 1007.3 hPa | 0 mm | - | - | - |
| 1777849808 | 29.44° C | 52% | 1007.4 hPa | 0 mm | - | - | - |
| 1777849211 | 30° C | 46% | 1007.6 hPa | 0 mm | - | - | - |
| 1777848610 | 30° C | 53% | 1007.8 hPa | 0 mm | - | - | - |
| 1777848010 | 28.89° C | 50% | 1007.9 hPa | 0 mm | - | - | - |
| 1777847411 | 28.89° C | 57% | 1008.1 hPa | 0 mm | - | - | - |
| 1777846809 | 28.89° C | 52% | 1008.3 hPa | 0 mm | - | - | - |
| 1777846210 | 28.89° C | 53% | 1008.4 hPa | 0 mm | - | - | - |
| 1777845612 | 28.33° C | 51% | 1008.6 hPa | 0 mm | - | - | - |
| 1777845010 | 28.89° C | 47% | 1008.7 hPa | 0 mm | - | - | - |
* Rain latest hour (hover to see other rain measurements)
** Current wind speed in m/s (hover to see current wind gust speed)